Regional Weather Roundup
Issued by NWS Goodland, KS

Home | Current Version | Previous Version | Graphics & Text | Print | Product List | Glossary On
Versions: 1 2 3 4 5 6 7 8 9 10 11 12 13 14 15 16 17 18 19 20 21 22 23 24 25 26 27 28 29 30 31 32 33 34 35 36 37 38 39 40 41 42 43 44 45 46 47 48 49 50
000
ASUS43 KGLD 282259
RWRGLD

GOODLAND FORECAST AREA HOURLY WEATHER ROUNDUP
NATIONAL WEATHER SERVICE GOODLAND KS
500 PM MDT MON JUL 28 2014

...OFFICIAL OBSERVATIONS...

CITY           SKY/WX    TMP DP  RH WIND       PRES   REMARKS
GOODLAND KS    SUNNY     83  52  34 S18       30.25F
HILL CITY KS   SUNNY     89  55  31 S6        30.18F
IMPERIAL NEB   CLOUDY    89  54  30 SE9       30.20F
MCCOOK NEB     SUNNY     89  56  32 E7        30.19F
AKRON CO       PTSUNNY   83  53  35 S17G25    30.25F
BURLINGTON CO  MOSUNNY   81  51  35 S13G22    30.27F
LIMON CO       CLOUDY    76  54  46 S13G20    30.32F
$$

...UNOFFICIAL OBSERVATIONS...

CITY           SKY/WX    TMP DP  RH WIND       PRES   REMARKS
COLBY KS       SUNNY     86  57  37 S10G17    30.23F
LENORA KS        N/A     86  32  14 MISG        N/A
NORTON KS      SUNNY     88  48  25 SE7       30.19F
TRENTON NEB      N/A     91  32  12 SE13        N/A
KIT CARSON CO    N/A     81  57  43 N14         N/A
YUMA CO          N/A     84  53  34 S9G18       N/A
$$


USA.gov is the U.S. government's official web portal to all federal, state and local government web resources and services.